EW9828 Weather Reports


time (UTC)temp
C
wind
direction
speed
KPH
gust
KPH
rain 1hr
cm
rain 24hr
cm
rain mn
cm
humidity
%
barometer
mb
20260508030115 9 13 0.0 0.0 0.00 0.00 0.00 94 1012.2
20260508024602 10 13 0.0 0.0 0.00 0.00 0.00 94 1012.2
20260508023054 10 13 0.0 0.0 0.00 0.00 0.00 94 1012.0
20260508021554 10 13 0.0 0.0 0.00 0.00 0.00 94 1011.9
20260508020058 10 13 0.0 0.0 0.00 0.00 0.00 94 1011.4
20260508014546 11 13 0.0 0.0 0.00 0.00 0.00 94 1011.3
20260508013044 11 13 0.0 0.0 0.00 0.00 0.00 93 1011.2
20260508011548 11 13 0.0 0.0 0.00 0.00 0.00 93 1011.1
20260508010056 11 13 0.0 0.0 0.00 0.00 0.00 93 1011.0
20260508004538 12 13 0.0 0.0 0.00 0.00 0.00 93 1011.1
20260508003036 12 13 0.0 0.0 0.00 0.00 0.00 93 1011.1
20260508001536 12 13 0.0 0.0 0.00 0.00 0.00 93 1010.7
20260508000043 12 13 0.0 0.0 0.00 0.00 0.00 93 1010.3
20260507234534 12 13 0.0 0.0 0.00 0.00 0.00 93 1010.3
20260507233039 12 13 0.0 0.0 0.00 0.00 0.00 93 1010.1
20260507231531 12 13 0.0 0.0 0.00 0.00 0.00 93 1010.0
20260507230047 12 13 0.0 0.0 0.00 0.00 0.00 93 1009.7
20260507224535 12 13 0.0 0.0 0.00 0.00 0.00 93 1010.1
20260507223104 12 13 0.0 0.0 0.00 0.00 0.00 93 1010.1
20260507221532 12 13 0.0 0.0 0.00 0.00 0.00 93 1010.0
20260507220029 12 13 0.0 0.0 0.00 0.00 0.00 92 1009.7
20260507214528 12 12 0.0 0.0 0.00 0.00 0.00 93 1009.7
20260507213028 13 12 0.0 0.0 0.00 0.00 0.00 94 1009.6
20260507211528 13 12 0.0 0.0 0.00 0.00 0.00 94 1009.5
20260507210035 13 12 0.0 0.0 0.00 0.00 0.00 93 1009.4
20260507204533 13 12 0.0 0.0 0.00 0.00 0.00 93 1009.5
20260507203034 13 12 0.0 0.0 0.00 0.00 0.00 94 1009.6
20260507201525 12 12 0.0 0.0 0.00 0.00 0.00 94 1009.8
20260507200046 12 12 0.0 0.0 0.00 0.00 0.00 94 1010.0
20260507194528 12 12 0.0 0.0 0.00 0.00 0.00 94 1009.8
20260507193039 12 12 0.0 0.0 0.00 0.00 0.00 93 1010.1
20260507191525 12 12 0.0 0.0 0.00 0.00 0.00 93 1010.1
20260507190033 13 12 0.0 0.0 0.00 0.00 0.00 94 1009.9
20260507184522 12 12 0.0 0.0 0.00 0.00 0.00 94 1010.0
20260507183033 12 12 0.0 0.0 0.00 0.00 0.00 94 1010.1
20260507181521 12 12 0.0 0.0 0.00 0.00 0.00 95 1010.2
20260507180020 12 13 0.0 0.0 0.00 0.00 0.00 95 1010.0
20260507174521 12 13 0.0 0.0 0.00 0.00 0.00 95 1009.9
20260507173021 12 12 0.0 0.0 0.00 0.00 0.00 95 1009.8
20260507171518 12 13 0.0 0.0 0.00 0.00 0.00 95 1009.8
20260507170018 12 13 0.0 0.0 0.00 0.00 0.00 95 1010.2
20260507164518 12 13 0.0 0.0 0.00 0.00 0.00 95 1010.3
20260507163017 12 13 0.0 0.0 0.00 0.00 0.00 95 1010.0
20260507161516 12 13 0.0 0.0 0.00 0.00 0.00 95 1010.5
20260507160016 12 13 0.0 0.0 0.00 0.00 0.00 95 1010.5
20260507154516 12 13 0.0 0.0 0.00 0.00 0.00 95 1010.6
20260507153014 12 13 0.0 0.0 0.00 0.00 0.00 95 1010.7
20260507151514 12 13 0.0 0.0 0.00 0.00 0.00 95 1010.2
20260507150013 12 14 0.0 0.0 0.00 0.00 0.00 95 1010.1
20260507144515 12 14 0.0 0.0 0.00 0.00 0.00 94 1009.9
20260507143009 13 11 0.0 0.0 0.00 0.00 0.00 94 1009.9
20260507141505 14 11 0.0 0.0 0.00 0.00 0.00 93 1010.3
20260507140001 15 9 0.0 0.0 0.00 0.00 0.00 93 1009.4
20260507134601 16 9 0.0 0.0 0.00 0.00 0.00 94 1009.0
20260507133055 17 5 0.0 0.0 0.00 0.00 0.00 96 1009.4
20260507131554 17 5 0.0 0.0 0.00 0.00 0.00 96 1009.8
20260507130107 17 5 0.0 0.0 0.00 0.00 0.00 96 1009.4
20260507124618 17 5 0.0 0.0 0.00 0.00 0.00 96 1009.2
20260507123106 17 5 0.0 0.0 0.00 0.00 0.00 96 1009.3
20260507121559 17 5 0.0 0.0 0.00 0.00 0.00 96 1009.4
20260507120052 17 5 0.0 0.0 0.00 0.00 0.00 96 1009.4
20260507114553 17 5 0.0 0.0 0.00 0.00 0.00 96 1009.3
20260507113050 17 5 0.0 0.0 0.00 0.00 0.00 96 1009.2
20260507111550 17 5 0.0 0.0 0.00 0.00 0.00 96 1009.6
20260507110050 17 5 0.0 0.0 0.00 0.00 0.00 96 1009.2
20260507104554 17 5 0.0 0.0 0.00 0.00 0.00 96 1009.2
20260507103048 17 9 0.0 0.0 0.00 0.00 0.00 96 1009.1
20260507101557 17 5 0.0 0.0 0.00 0.00 0.00 96 1008.2
20260507100056 17 5 0.0 0.0 0.00 0.00 0.00 96 1009.0
20260507094547 17 9 0.0 0.0 0.00 0.00 0.00 96 1009.0
20260507093046 17 5 0.0 0.0 0.00 0.00 0.00 96 1009.5
20260507091545 17 5 0.0 0.0 0.00 0.00 0.00 96 1009.1
20260507090048 17 9 0.0 0.0 0.00 0.00 0.00 96 1009.2
20260507084549 17 5 0.0 0.0 0.00 0.00 0.00 96 1009.1
20260507083058 17 9 0.0 0.0 0.00 0.00 0.00 95 1009.1
20260507081546 17 5 0.0 0.0 0.00 0.00 0.00 95 1009.0
20260507080040 17 5 0.0 0.0 0.00 0.00 0.00 95 1008.9
20260507074540 17 9 0.0 0.0 0.00 0.00 0.00 96 1008.7
20260507073050 17 9 0.0 0.0 0.00 0.00 0.00 95 1008.2
20260507071537 18 5 0.0 0.0 0.00 0.00 0.00 95 1008.7
20260507070041 18 9 0.0 0.0 0.00 0.00 0.00 95 1008.6
20260507064538 18 9 0.0 0.0 0.00 0.00 0.00 95 1008.8
20260507063033 18 9 0.0 0.0 0.00 0.00 0.00 95 1009.5
20260507061531 18 9 0.0 0.0 0.00 0.00 0.00 95 1009.8
20260507060030 18 9 0.0 0.0 0.00 0.00 0.00 95 1010.0
20260507054538 18 9 0.0 0.0 0.00 0.00 0.00 95 1010.3
20260507053030 18 9 0.0 0.0 0.00 0.00 0.00 95 1010.6
20260507051529 18 9 0.0 0.0 0.00 0.00 0.00 95 1010.6
20260507050035 18 9 0.0 0.0 0.00 0.00 0.00 95 1010.4
20260507044535 18 9 0.0 0.0 0.00 0.00 0.00 94 1010.5
20260507043026 18 9 0.0 0.0 0.00 0.00 0.00 94 1010.1
20260507041530 18 9 0.0 0.0 0.00 0.00 0.00 93 1010.7
20260507040019 18 5 0.0 0.0 0.00 0.00 0.00 92 1011.3
20260507034519 18 5 0.0 0.0 0.00 0.00 0.00 91 1011.4
20260507033019 19 5 0.0 0.0 0.00 0.00 0.00 90 1011.2
20260507031525 19 5 0.0 0.0 0.00 0.00 0.00 89 1010.6